Location: Brachbach
(49.1847°N, 9.7240°E)
Time: 17:57:34
(UTC+00:00)

Gurwin Techsat 1B - Visible Passes

Search period start: 07 March 2026 00:00
Search period end: 17 March 2026 00:00
Orbit: 809 x 812 km, 99.0° (Epoch: 7 March)

Date Brightness Start Highest point End Pass type
(mag) Time Alt. Az. Time Alt. Az. Time Alt. Az.
7 Mar 10.1 03:55:09 10° NNE 04:00:04 37° E 04:04:57 10° SSE visible
8 Mar 10.9 03:32:00 10° NE 03:36:17 24° E 03:40:32 10° SSE visible
8 Mar 8.7 05:11:17 10° N 05:16:29 56° WNW 05:21:38 10° SW visible
9 Mar 11.4 03:09:17 10° NE 03:12:25 16° E 03:15:31 10° SE visible
9 Mar 8.6 04:47:37 10° NNE 04:52:57 85° WNW 04:58:16 10° SSW visible
10 Mar 9.1 04:24:04 10° NNE 04:29:21 63° ESE 04:34:36 10° S visible
11 Mar 10.0 04:00:40 10° NNE 04:05:40 41° E 04:10:39 10° SSE visible
12 Mar 10.7 03:37:27 10° NE 03:41:54 26° E 03:46:19 10° SSE visible
13 Mar 11.4 03:14:37 10° NE 03:18:03 17° E 03:21:28 10° SE visible
13 Mar 8.6 04:53:11 10° NNE 04:58:32 78° WNW 05:03:49 10° SSW visible
14 Mar 11.7 02:53:06 10° ENE 02:54:06 10° E 02:55:06 10° E visible
14 Mar 9.0 04:29:37 10° NNE 04:34:56 69° ESE 04:40:13 10° S visible
15 Mar 9.8 04:06:10 10° NNE 04:11:16 44° E 04:16:19 10° S visible
16 Mar 10.6 03:42:55 10° NE 03:47:31 29° E 03:52:05 10° SSE visible
